Time,TemperatureF,DewpointF,PressureIn,WindDirection,WindDirectionDegrees,WindSpeedMPH,WindSpeedGustMPH,Humidity,HourlyPrecipIn,Conditions,Clouds,dailyrainin,SoftwareType,DateUTC
2010-07-14 00:01:00,78.6,73.7,29.79,WSW,258,0.0,0.0,85,0.00,,,0.00,WeatherTracker,2010-07-14 05:01:00,
2010-07-14 00:06:00,78.4,73.9,29.80,West,264,0.0,0.0,86,0.00,,,0.00,WeatherTracker,2010-07-14 05:06:00,
2010-07-14 00:11:00,78.2,73.7,29.80,West,268,0.0,0.0,86,0.00,,,0.00,WeatherTracker,2010-07-14 05:11:00,
2010-07-14 00:16:00,78.1,73.6,29.80,West,268,1.0,0.0,86,0.00,,,0.00,WeatherTracker,2010-07-14 05:16:00,
2010-07-14 00:21:00,78.0,73.5,29.80,WSW,257,1.0,0.0,86,0.00,,,0.00,WeatherTracker,2010-07-14 05:21:00,
2010-07-14 00:26:00,77.9,73.7,29.80,WNW,288,1.0,0.0,87,0.00,,,0.00,WeatherTracker,2010-07-14 05:26:00,
2010-07-14 00:31:00,77.9,73.7,29.80,NW,322,0.0,0.0,87,0.00,,,0.00,WeatherTracker,2010-07-14 05:31:00,
2010-07-14 00:36:00,77.9,73.7,29.80,NW,322,0.0,0.0,87,0.00,,,0.00,WeatherTracker,2010-07-14 05:36:00,
2010-07-14 00:41:00,77.8,73.6,29.80,NW,323,0.0,0.0,87,0.00,,,0.00,WeatherTracker,2010-07-14 05:41:00,
2010-07-14 00:46:00,77.7,73.5,29.80,West,270,0.0,0.0,87,0.00,,,0.00,WeatherTracker,2010-07-14 05:46:00,
2010-07-14 00:51:00,77.7,73.5,29.80,West,278,0.0,0.0,87,0.00,,,0.00,WeatherTracker,2010-07-14 05:51:00,
2010-07-14 00:56:00,77.8,73.6,29.80,North,355,0.0,0.0,87,0.00,,,0.00,WeatherTracker,2010-07-14 05:56:00,
2010-07-14 01:01:00,77.6,73.4,29.80,SSW,211,0.0,0.0,87,0.00,,,0.00,WeatherTracker,2010-07-14 06:01:00,
2010-07-14 01:06:00,77.5,73.3,29.80,South,170,0.0,0.0,87,0.00,,,0.00,WeatherTracker,2010-07-14 06:06:00,
2010-07-14 01:11:00,77.4,73.2,29.80,SSW,211,0.0,0.0,87,0.00,,,0.00,WeatherTracker,2010-07-14 06:11:00,
2010-07-14 01:16:00,77.3,73.1,29.80,WNW,295,2.0,0.0,87,0.00,,,0.00,WeatherTracker,2010-07-14 06:16:00,
2010-07-14 01:21:00,77.3,73.5,29.80,SW,221,0.0,0.0,88,0.00,,,0.00,WeatherTracker,2010-07-14 06:21:00,
2010-07-14 01:26:00,77.1,73.3,29.80,ESE,119,0.0,0.0,88,0.00,,,0.00,WeatherTracker,2010-07-14 06:26:00,
2010-07-14 01:31:00,77.1,73.3,29.80,WSW,250,0.0,0.0,88,0.00,,,0.00,WeatherTracker,2010-07-14 06:31:00,
2010-07-14 01:36:00,77.1,73.3,29.80,West,271,1.0,0.0,88,0.00,,,0.00,WeatherTracker,2010-07-14 06:36:00,
2010-07-14 01:41:00,77.1,73.3,29.80,West,274,1.0,0.0,88,0.00,,,0.00,WeatherTracker,2010-07-14 06:41:00,
2010-07-14 01:46:00,77.1,73.3,29.80,SSE,149,2.0,0.0,88,0.00,,,0.00,WeatherTracker,2010-07-14 06:46:00,
2010-07-14 01:52:00,77.2,73.4,29.80,NW,323,4.0,0.0,88,0.00,,,0.00,WeatherTracker,2010-07-14 06:52:00,
2010-07-14 01:57:00,77.2,73.0,29.80,NW,309,0.0,0.0,87,0.00,,,0.00,WeatherTracker,2010-07-14 06:57:00,
2010-07-14 02:02:00,77.3,73.1,29.80,SW,232,0.0,0.0,87,0.00,,,0.00,WeatherTracker,2010-07-14 07:02:00,
2010-07-14 02:07:00,77.3,73.1,29.80,NW,325,0.0,0.0,87,0.00,,,0.00,WeatherTracker,2010-07-14 07:07:00,
2010-07-14 02:12:00,77.3,73.1,29.80,WNW,284,0.0,0.0,87,0.00,,,0.00,WeatherTracker,2010-07-14 07:12:00,
2010-07-14 02:17:00,77.2,73.0,29.80,SE,128,0.0,0.0,87,0.00,,,0.00,WeatherTracker,2010-07-14 07:17:00,
2010-07-14 02:22:00,77.2,73.0,29.80,WNW,300,0.0,0.0,87,0.00,,,0.00,WeatherTracker,2010-07-14 07:22:00,
2010-07-14 02:27:00,77.2,73.0,29.80,WSW,256,0.0,0.0,87,0.00,,,0.00,WeatherTracker,2010-07-14 07:27:00,
2010-07-14 02:32:00,77.3,73.1,29.80,WSW,250,0.0,0.0,87,0.00,,,0.00,WeatherTracker,2010-07-14 07:32:00,
2010-07-14 02:37:00,77.3,73.1,29.80,West,280,0.0,0.0,87,0.00,,,0.00,WeatherTracker,2010-07-14 07:37:00,
2010-07-14 02:42:00,77.4,73.2,29.80,South,169,2.0,0.0,87,0.00,,,0.00,WeatherTracker,2010-07-14 07:42:00,
2010-07-14 02:47:00,77.3,73.1,29.80,SSW,192,0.0,0.0,87,0.00,,,0.00,WeatherTracker,2010-07-14 07:47:00,
2010-07-14 02:52:00,77.2,73.0,29.80,South,175,0.0,0.0,87,0.00,,,0.00,WeatherTracker,2010-07-14 07:52:00,
2010-07-14 02:57:00,77.1,72.9,29.80,North,355,0.0,0.0,87,0.00,,,0.00,WeatherTracker,2010-07-14 07:57:00,
2010-07-14 03:02:00,77.1,72.9,29.80,WNW,288,2.0,0.0,87,0.00,,,0.00,WeatherTracker,2010-07-14 08:02:00,
2010-07-14 03:08:00,77.1,72.9,29.80,South,169,2.0,0.0,87,0.00,,,0.00,WeatherTracker,2010-07-14 08:08:00,
2010-07-14 03:13:00,77.2,73.0,29.80,NW,325,0.0,0.0,87,0.00,,,0.00,WeatherTracker,2010-07-14 08:13:00,
2010-07-14 03:18:00,77.3,73.1,29.80,WNW,302,0.0,0.0,87,0.00,,,0.00,WeatherTracker,2010-07-14 08:18:00,
2010-07-14 03:23:00,77.2,73.0,29.80,West,267,0.0,0.0,87,0.00,,,0.00,WeatherTracker,2010-07-14 08:23:00,
2010-07-14 03:28:00,77.3,73.1,29.80,SSW,198,0.0,0.0,87,0.00,,,0.00,WeatherTracker,2010-07-14 08:28:00,
2010-07-14 03:33:00,77.4,73.2,29.80,WSW,254,2.0,0.0,87,0.00,,,0.00,WeatherTracker,2010-07-14 08:33:00,
2010-07-14 03:38:00,77.4,73.2,29.80,SSW,211,1.0,0.0,87,0.00,,,0.00,WeatherTracker,2010-07-14 08:38:00,
2010-07-14 03:43:00,77.4,73.2,29.80,West,271,0.0,0.0,87,0.00,,,0.00,WeatherTracker,2010-07-14 08:43:00,
2010-07-14 03:48:00,77.4,73.2,29.80,WNW,302,0.0,0.0,87,0.00,,,0.00,WeatherTracker,2010-07-14 08:48:00,
2010-07-14 03:53:00,77.4,73.2,29.80,North,11,0.0,0.0,87,0.00,,,0.00,WeatherTracker,2010-07-14 08:53:00,
2010-07-14 03:58:00,77.4,73.2,29.79,North,355,0.0,0.0,87,0.00,,,0.00,WeatherTracker,2010-07-14 08:58:00,
2010-07-14 04:03:00,77.4,73.2,29.79,North,355,0.0,0.0,87,0.00,,,0.00,WeatherTracker,2010-07-14 09:03:00,
2010-07-14 04:08:00,77.4,73.2,29.79,WNW,284,0.0,0.0,87,0.00,,,0.00,WeatherTracker,2010-07-14 09:08:00,
2010-07-14 04:13:00,77.4,73.2,29.79,SSE,167,0.0,0.0,87,0.00,,,0.00,WeatherTracker,2010-07-14 09:13:00,
2010-07-14 04:18:00,77.5,73.3,29.79,SW,226,2.0,0.0,87,0.00,,,0.00,WeatherTracker,2010-07-14 09:18:00,
2010-07-14 04:23:00,77.7,73.5,29.79,SSE,147,3.0,0.0,87,0.00,,,0.00,WeatherTracker,2010-07-14 09:23:00,
2010-07-14 04:28:00,77.9,73.7,29.79,West,270,1.0,0.0,87,0.00,,,0.00,WeatherTracker,2010-07-14 09:28:00,
2010-07-14 04:33:00,78.0,73.8,29.79,NW,310,0.0,0.0,87,0.00,,,0.00,WeatherTracker,2010-07-14 09:33:00,
2010-07-14 04:38:00,78.0,73.5,29.79,NW,321,3.0,0.0,86,0.00,,,0.00,WeatherTracker,2010-07-14 09:38:00,
2010-07-14 04:43:00,78.1,73.6,29.79,WSW,246,2.0,0.0,86,0.00,,,0.00,WeatherTracker,2010-07-14 09:43:00,
2010-07-14 04:48:00,78.2,73.7,29.79,NNW,331,1.0,0.0,86,0.00,,,0.00,WeatherTracker,2010-07-14 09:48:00,
2010-07-14 04:53:00,78.4,73.9,29.79,NNW,333,0.0,0.0,86,0.00,,,0.00,WeatherTracker,2010-07-14 09:53:00,
2010-07-14 04:58:00,78.5,73.6,29.79,NNE,22,3.0,0.0,85,0.00,,,0.00,WeatherTracker,2010-07-14 09:58:00,
2010-07-14 05:04:00,78.4,73.9,29.79,WNW,287,1.0,0.0,86,0.00,,,0.00,WeatherTracker,2010-07-14 10:04:00,
2010-07-14 05:09:00,78.4,73.9,29.79,SE,139,0.0,0.0,86,0.00,,,0.00,WeatherTracker,2010-07-14 10:09:00,
2010-07-14 05:14:00,78.4,73.9,29.79,NNW,329,0.0,0.0,86,0.00,,,0.00,WeatherTracker,2010-07-14 10:14:00,
2010-07-14 05:19:00,78.5,74.0,29.79,WNW,284,1.0,0.0,86,0.00,,,0.00,WeatherTracker,2010-07-14 10:19:00,
2010-07-14 05:24:00,78.7,74.1,29.79,WSW,254,2.0,0.0,86,0.00,,,0.00,WeatherTracker,2010-07-14 10:24:00,
2010-07-14 05:29:00,78.7,74.1,29.79,West,273,1.0,0.0,86,0.00,,,0.00,WeatherTracker,2010-07-14 10:29:00,
2010-07-14 05:34:00,78.7,74.1,29.79,NNW,336,0.0,0.0,86,0.00,,,0.00,WeatherTracker,2010-07-14 10:34:00,
2010-07-14 05:39:00,78.7,74.1,29.79,NNW,340,3.0,0.0,86,0.00,,,0.00,WeatherTracker,2010-07-14 10:39:00,
2010-07-14 05:44:00,78.7,74.1,29.79,NW,316,0.0,0.0,86,0.00,,,0.00,WeatherTracker,2010-07-14 10:44:00,
2010-07-14 05:49:00,78.7,74.1,29.79,WSW,243,5.0,0.0,86,0.00,,,0.00,WeatherTracker,2010-07-14 10:49:00,
2010-07-14 05:54:00,78.5,74.0,29.79,West,269,5.0,0.0,86,0.00,,,0.00,WeatherTracker,2010-07-14 10:54:00,
2010-07-14 05:59:00,78.4,73.9,29.79,West,276,0.0,0.0,86,0.00,,,0.00,WeatherTracker,2010-07-14 10:59:00,
2010-07-14 06:04:00,78.2,74.0,29.79,NW,326,1.0,0.0,87,0.00,,,0.00,WeatherTracker,2010-07-14 11:04:00,
2010-07-14 06:09:00,78.2,74.0,29.79,WNW,300,0.0,0.0,87,0.00,,,0.00,WeatherTracker,2010-07-14 11:09:00,
2010-07-14 06:14:00,78.1,73.9,29.79,NW,317,2.0,0.0,87,0.00,,,0.00,WeatherTracker,2010-07-14 11:14:00,
2010-07-14 06:19:00,78.1,73.9,29.80,WSW,257,2.0,0.0,87,0.00,,,0.00,WeatherTracker,2010-07-14 11:19:00,
2010-07-14 06:24:00,78.1,73.9,29.80,NNW,330,0.0,0.0,87,0.00,,,0.00,WeatherTracker,2010-07-14 11:24:00,
2010-07-14 06:29:00,78.0,73.8,29.80,NW,307,2.0,0.0,87,0.00,,,0.00,WeatherTracker,2010-07-14 11:29:00,
2010-07-14 06:34:00,78.0,73.8,29.80,NE,50,2.0,0.0,87,0.00,,,0.00,WeatherTracker,2010-07-14 11:34:00,
2010-07-14 06:39:00,77.9,74.0,29.80,WSW,252,0.0,0.0,88,0.00,,,0.00,WeatherTracker,2010-07-14 11:39:00,
2010-07-14 06:44:00,77.9,74.0,29.80,NW,319,1.0,0.0,88,0.00,,,0.00,WeatherTracker,2010-07-14 11:44:00,
2010-07-14 06:49:00,78.0,74.1,29.80,ENE,60,1.0,0.0,88,0.00,,,0.00,WeatherTracker,2010-07-14 11:49:00,
2010-07-14 06:54:00,78.1,74.2,29.80,WNW,289,0.0,0.0,88,0.00,,,0.00,WeatherTracker,2010-07-14 11:54:00,
2010-07-14 06:59:00,78.2,74.3,29.80,SW,222,0.0,0.0,88,0.00,,,0.00,WeatherTracker,2010-07-14 11:59:00,
2010-07-14 07:04:00,78.3,74.4,29.80,WNW,290,3.0,0.0,88,0.00,,,0.00,WeatherTracker,2010-07-14 12:04:00,
2010-07-14 07:09:00,78.4,74.5,29.80,SSE,156,0.0,0.0,88,0.00,,,0.00,WeatherTracker,2010-07-14 12:09:00,
2010-07-14 07:14:00,78.5,74.6,29.79,WNW,284,0.0,0.0,88,0.00,,,0.00,WeatherTracker,2010-07-14 12:14:00,
2010-07-14 07:19:00,78.6,74.7,29.79,NNW,337,0.0,0.0,88,0.00,,,0.00,WeatherTracker,2010-07-14 12:19:00,
2010-07-14 07:24:00,78.7,74.8,29.80,NNE,13,0.0,0.0,88,0.00,,,0.00,WeatherTracker,2010-07-14 12:24:00,
2010-07-14 07:29:00,78.7,74.8,29.80,NNW,331,7.0,0.0,88,0.00,,,0.00,WeatherTracker,2010-07-14 12:29:00,
2010-07-14 07:35:00,78.7,74.8,29.80,West,279,2.0,0.0,88,0.00,,,0.00,WeatherTracker,2010-07-14 12:35:00,
2010-07-14 07:40:00,78.8,74.9,29.80,NNW,342,0.0,0.0,88,0.00,,,0.00,WeatherTracker,2010-07-14 12:40:00,
2010-07-14 07:45:00,79.0,75.1,29.80,NNW,335,1.0,0.0,88,0.00,,,0.00,WeatherTracker,2010-07-14 12:45:00,
2010-07-14 07:50:00,79.1,75.2,29.80,NNW,330,4.0,0.0,88,0.00,,,0.00,WeatherTracker,2010-07-14 12:50:00,
2010-07-14 07:55:00,79.2,75.3,29.80,WNW,296,0.0,0.0,88,0.00,,,0.00,WeatherTracker,2010-07-14 12:55:00,
2010-07-14 08:00:00,79.3,75.4,29.80,NNW,327,1.0,0.0,88,0.00,,,0.00,WeatherTracker,2010-07-14 13:00:00,
2010-07-14 08:05:00,79.5,76.0,29.80,NW,310,4.0,0.0,89,0.00,,,0.00,WeatherTracker,2010-07-14 13:05:00,
2010-07-14 08:10:00,79.6,76.1,29.80,West,280,1.0,0.0,89,0.00,,,0.00,WeatherTracker,2010-07-14 13:10:00,
2010-07-14 08:15:00,79.8,76.3,29.80,North,355,2.0,0.0,89,0.00,,,0.00,WeatherTracker,2010-07-14 13:15:00,
2010-07-14 08:20:00,80.0,76.5,29.80,SW,215,3.0,0.0,89,0.00,,,0.00,WeatherTracker,2010-07-14 13:20:00,
2010-07-14 08:25:00,80.1,76.2,29.80,West,261,2.0,0.0,88,0.00,,,0.00,WeatherTracker,2010-07-14 13:25:00,
2010-07-14 08:30:00,80.3,76.8,29.80,WNW,285,2.0,0.0,89,0.00,,,0.00,WeatherTracker,2010-07-14 13:30:00,
2010-07-14 08:35:00,80.5,76.6,29.80,North,350,0.0,0.0,88,0.00,,,0.00,WeatherTracker,2010-07-14 13:35:00,
2010-07-14 08:40:00,80.7,76.8,29.80,WNW,287,0.0,0.0,88,0.00,,,0.00,WeatherTracker,2010-07-14 13:40:00,
2010-07-14 08:45:00,80.9,77.0,29.80,NNW,348,4.0,0.0,88,0.00,,,0.00,WeatherTracker,2010-07-14 13:45:00,
2010-07-14 08:50:00,81.1,77.2,29.80,NW,306,5.0,0.0,88,0.00,,,0.00,WeatherTracker,2010-07-14 13:50:00,
2010-07-14 08:55:00,81.3,77.4,29.79,WNW,284,1.0,0.0,88,0.00,,,0.00,WeatherTracker,2010-07-14 13:55:00,
2010-07-14 09:00:00,81.4,77.5,29.80,NW,313,3.0,0.0,88,0.00,,,0.00,WeatherTracker,2010-07-14 14:00:00,
2010-07-14 09:05:00,81.6,77.7,29.80,NNW,334,2.0,0.0,88,0.00,,,0.00,WeatherTracker,2010-07-14 14:05:00,
2010-07-14 09:10:00,81.9,78.0,29.80,WNW,290,3.0,0.0,88,0.00,,,0.00,WeatherTracker,2010-07-14 14:10:00,
2010-07-14 09:16:00,82.1,78.2,29.80,NNW,327,6.0,0.0,88,0.00,,,0.00,WeatherTracker,2010-07-14 14:16:00,
2010-07-14 09:21:00,82.4,78.1,29.79,NW,326,7.0,0.0,87,0.00,,,0.00,WeatherTracker,2010-07-14 14:21:00,
2010-07-14 09:26:00,82.7,78.4,29.79,NE,34,1.0,0.0,87,0.00,,,0.00,WeatherTracker,2010-07-14 14:26:00,
2010-07-14 09:31:00,83.0,78.7,29.79,WSW,237,1.0,0.0,87,0.00,,,0.00,WeatherTracker,2010-07-14 14:31:00,
2010-07-14 09:36:00,83.3,79.0,29.79,North,355,2.0,0.0,87,0.00,,,0.00,WeatherTracker,2010-07-14 14:36:00,
2010-07-14 09:41:00,83.7,79.4,29.79,NNW,346,5.0,0.0,87,0.00,,,0.00,WeatherTracker,2010-07-14 14:41:00,
2010-07-14 09:46:00,84.1,79.4,29.79,NW,324,3.0,0.0,86,0.00,,,0.00,WeatherTracker,2010-07-14 14:46:00,
2010-07-14 09:51:00,84.5,79.5,29.79,NW,311,12.0,0.0,85,0.00,,,0.00,WeatherTracker,2010-07-14 14:51:00,
2010-07-14 09:56:00,85.1,80.1,29.79,WNW,287,4.0,0.0,85,0.00,,,0.00,WeatherTracker,2010-07-14 14:56:00,
2010-07-14 10:01:00,85.5,79.7,29.79,WSW,252,0.0,0.0,83,0.00,,,0.00,WeatherTracker,2010-07-14 15:01:00,
2010-07-14 10:06:00,85.7,79.9,29.79,SW,232,1.0,0.0,83,0.00,,,0.00,WeatherTracker,2010-07-14 15:06:00,
2010-07-14 10:11:00,85.7,79.9,29.79,NNE,24,2.0,0.0,83,0.00,,,0.00,WeatherTracker,2010-07-14 15:11:00,
2010-07-14 10:16:00,85.9,80.1,29.79,NNW,333,3.0,0.0,83,0.00,,,0.00,WeatherTracker,2010-07-14 15:16:00,
2010-07-14 10:21:00,85.8,80.0,29.79,NNW,330,3.0,0.0,83,0.00,,,0.00,WeatherTracker,2010-07-14 15:21:00,
2010-07-14 10:26:00,86.3,80.5,29.79,NNE,12,3.0,0.0,83,0.00,,,0.00,WeatherTracker,2010-07-14 15:26:00,
2010-07-14 10:32:00,87.0,80.4,29.79,South,169,0.0,0.0,81,0.00,,,0.00,WeatherTracker,2010-07-14 15:32:00,
2010-07-14 10:37:00,87.1,80.2,29.79,NNW,330,2.0,0.0,80,0.00,,,0.00,WeatherTracker,2010-07-14 15:37:00,
2010-07-14 10:42:00,86.9,80.3,29.79,North,5,2.0,0.0,81,0.00,,,0.00,WeatherTracker,2010-07-14 15:42:00,
2010-07-14 10:47:00,86.9,80.3,29.79,West,279,1.0,0.0,81,0.00,,,0.00,WeatherTracker,2010-07-14 15:47:00,
2010-07-14 10:52:00,87.1,80.5,29.79,NW,311,3.0,0.0,81,0.00,,,0.00,WeatherTracker,2010-07-14 15:52:00,
2010-07-14 10:57:00,87.3,80.7,29.79,NW,325,0.0,0.0,81,0.00,,,0.00,WeatherTracker,2010-07-14 15:57:00,
2010-07-14 11:02:00,87.6,81.0,29.79,WSW,238,1.0,0.0,81,0.00,,,0.00,WeatherTracker,2010-07-14 16:02:00,
2010-07-14 11:07:00,88.1,81.1,29.78,NNW,333,11.0,0.0,80,0.00,,,0.00,WeatherTracker,2010-07-14 16:07:00,
2010-07-14 11:12:00,88.6,81.6,29.78,NNW,348,2.0,0.0,80,0.00,,,0.00,WeatherTracker,2010-07-14 16:12:00,
2010-07-14 11:17:00,88.7,80.9,29.78,NW,321,5.0,0.0,78,0.00,,,0.00,WeatherTracker,2010-07-14 16:17:00,
2010-07-14 11:22:00,88.9,81.5,29.78,NNW,346,5.0,0.0,79,0.00,,,0.00,WeatherTracker,2010-07-14 16:22:00,
2010-07-14 11:27:00,89.1,81.3,29.78,NE,36,4.0,0.0,78,0.00,,,0.00,WeatherTracker,2010-07-14 16:27:00,
2010-07-14 11:32:00,89.5,81.7,29.78,NNW,343,1.0,0.0,78,0.00,,,0.00,WeatherTracker,2010-07-14 16:32:00,
2010-07-14 11:37:00,90.1,81.9,29.78,North,355,6.0,0.0,77,0.00,,,0.00,WeatherTracker,2010-07-14 16:37:00,
2010-07-14 11:42:00,90.3,81.7,29.78,NW,306,11.0,0.0,76,0.00,,,0.00,WeatherTracker,2010-07-14 16:42:00,
2010-07-14 11:47:00,90.5,81.5,29.77,WNW,284,2.0,0.0,75,0.00,,,0.00,WeatherTracker,2010-07-14 16:47:00,
2010-07-14 11:52:00,90.6,81.6,29.77,North,355,0.0,0.0,75,0.00,,,0.00,WeatherTracker,2010-07-14 16:52:00,
2010-07-14 11:57:00,91.0,82.4,29.77,NNE,24,2.0,0.0,76,0.00,,,0.00,WeatherTracker,2010-07-14 16:57:00,
2010-07-14 12:02:00,91.3,81.8,29.78,NW,315,9.0,0.0,74,0.00,,,0.00,WeatherTracker,2010-07-14 17:02:00,
2010-07-14 12:07:00,91.6,82.9,29.77,ENE,61,1.0,0.0,76,0.00,,,0.00,WeatherTracker,2010-07-14 17:07:00,
2010-07-14 12:12:00,91.6,81.7,29.77,North,355,0.0,0.0,73,0.00,,,0.00,WeatherTracker,2010-07-14 17:12:00,
2010-07-14 12:17:00,91.5,82.0,29.77,SW,225,5.0,0.0,74,0.00,,,0.00,WeatherTracker,2010-07-14 17:17:00,
2010-07-14 12:23:00,91.7,82.2,29.77,NE,45,3.0,0.0,74,0.00,,,0.00,WeatherTracker,2010-07-14 17:23:00,
2010-07-14 12:28:00,92.0,82.1,29.77,WNW,298,1.0,0.0,73,0.00,,,0.00,WeatherTracker,2010-07-14 17:28:00,
2010-07-14 12:33:00,92.1,82.2,29.77,NW,311,3.0,0.0,73,0.00,,,0.00,WeatherTracker,2010-07-14 17:33:00,
2010-07-14 12:38:00,92.4,82.5,29.77,NNW,338,4.0,0.0,73,0.00,,,0.00,WeatherTracker,2010-07-14 17:38:00,
2010-07-14 12:43:00,92.7,81.9,29.77,NNW,342,4.0,0.0,71,0.00,,,0.00,WeatherTracker,2010-07-14 17:43:00,
2010-07-14 12:48:00,92.9,82.1,29.76,NW,322,5.0,0.0,71,0.00,,,0.00,WeatherTracker,2010-07-14 17:48:00,
2010-07-14 12:53:00,92.6,81.8,29.76,WNW,300,2.0,0.0,71,0.00,,,0.00,WeatherTracker,2010-07-14 17:53:00,
2010-07-14 12:58:00,92.9,82.5,29.76,NNE,19,3.0,0.0,72,0.00,,,0.00,WeatherTracker,2010-07-14 17:58:00,
2010-07-14 13:03:00,93.0,81.3,29.76,North,349,7.0,0.0,69,0.00,,,0.00,WeatherTracker,2010-07-14 18:03:00,
2010-07-14 13:08:00,93.1,81.8,29.77,North,360,6.0,0.0,70,0.00,,,0.00,WeatherTracker,2010-07-14 18:08:00,
2010-07-14 13:13:00,93.1,82.7,29.77,NW,325,9.0,0.0,72,0.00,,,0.00,WeatherTracker,2010-07-14 18:13:00,
2010-07-14 13:18:00,93.6,81.9,29.77,West,263,4.0,0.0,69,0.00,,,0.00,WeatherTracker,2010-07-14 18:18:00,
2010-07-14 13:23:00,94.0,81.8,29.77,NW,309,3.0,0.0,68,0.00,,,0.00,WeatherTracker,2010-07-14 18:23:00,
2010-07-14 13:28:00,94.0,82.2,29.77,West,269,6.0,0.0,69,0.00,,,0.00,WeatherTracker,2010-07-14 18:28:00,
2010-07-14 13:33:00,94.2,81.5,29.77,NW,309,6.0,0.0,67,0.00,,,0.00,WeatherTracker,2010-07-14 18:33:00,
2010-07-14 13:38:00,94.4,81.7,29.77,WNW,302,5.0,0.0,67,0.00,,,0.00,WeatherTracker,2010-07-14 18:38:00,
2010-07-14 13:43:00,94.7,81.5,29.77,NNW,331,18.0,0.0,66,0.00,,,0.00,WeatherTracker,2010-07-14 18:43:00,
2010-07-14 13:48:00,94.4,81.7,29.77,WNW,286,5.0,0.0,67,0.00,,,0.00,WeatherTracker,2010-07-14 18:48:00,
2010-07-14 13:53:00,94.4,81.2,29.77,North,360,9.0,0.0,66,0.00,,,0.00,WeatherTracker,2010-07-14 18:53:00,
2010-07-14 13:58:00,94.5,81.3,29.77,NNW,346,4.0,0.0,66,0.00,,,0.00,WeatherTracker,2010-07-14 18:58:00,
2010-07-14 14:03:00,94.9,81.7,29.77,NNW,333,7.0,0.0,66,0.00,,,0.00,WeatherTracker,2010-07-14 19:03:00,
2010-07-14 14:08:00,94.7,80.1,29.76,NNE,25,9.0,0.0,63,0.00,,,0.00,WeatherTracker,2010-07-14 19:08:00,
2010-07-14 14:13:00,94.6,81.0,29.76,West,267,4.0,0.0,65,0.00,,,0.00,WeatherTracker,2010-07-14 19:13:00,
2010-07-14 14:18:00,94.7,80.1,29.77,WNW,290,2.0,0.0,63,0.00,,,0.00,WeatherTracker,2010-07-14 19:18:00,
2010-07-14 14:23:00,94.6,80.0,29.76,NW,325,6.0,0.0,63,0.00,,,0.00,WeatherTracker,2010-07-14 19:23:00,
2010-07-14 14:28:00,94.5,80.9,29.77,North,350,5.0,0.0,65,0.00,,,0.00,WeatherTracker,2010-07-14 19:28:00,
2010-07-14 14:33:00,94.7,80.6,29.76,NNE,28,3.0,0.0,64,0.00,,,0.00,WeatherTracker,2010-07-14 19:33:00,
2010-07-14 14:38:00,94.8,80.7,29.77,NW,324,10.0,0.0,64,0.00,,,0.00,WeatherTracker,2010-07-14 19:38:00,
2010-07-14 14:43:00,95.0,80.9,29.76,NNW,335,5.0,0.0,64,0.00,,,0.00,WeatherTracker,2010-07-14 19:43:00,
2010-07-14 14:48:00,94.9,80.8,29.76,NNW,337,13.0,0.0,64,0.00,,,0.00,WeatherTracker,2010-07-14 19:48:00,
2010-07-14 14:53:00,95.2,80.6,29.76,NNW,342,5.0,0.0,63,0.00,,,0.00,WeatherTracker,2010-07-14 19:53:00,
2010-07-14 14:58:00,95.5,80.4,29.76,NW,307,8.0,0.0,62,0.00,,,0.00,WeatherTracker,2010-07-14 19:58:00,
2010-07-14 15:03:00,94.8,80.7,29.76,NNW,327,6.0,0.0,64,0.00,,,0.00,WeatherTracker,2010-07-14 20:03:00,
2010-07-14 15:09:00,94.6,80.5,29.76,NNW,337,10.0,0.0,64,0.00,,,0.00,WeatherTracker,2010-07-14 20:09:00,
2010-07-14 15:14:00,94.6,79.5,29.77,NW,306,2.0,0.0,62,0.00,,,0.00,WeatherTracker,2010-07-14 20:14:00,
2010-07-14 15:19:00,94.8,80.2,29.76,North,355,2.0,0.0,63,0.00,,,0.00,WeatherTracker,2010-07-14 20:19:00,
2010-07-14 15:24:00,95.1,80.5,29.76,NNE,15,6.0,0.0,63,0.00,,,0.00,WeatherTracker,2010-07-14 20:24:00,
2010-07-14 15:29:00,95.2,80.6,29.77,WNW,291,3.0,0.0,63,0.00,,,0.00,WeatherTracker,2010-07-14 20:29:00,
2010-07-14 15:34:00,95.1,80.5,29.77,West,260,5.0,0.0,63,0.00,,,0.00,WeatherTracker,2010-07-14 20:34:00,
2010-07-14 15:39:00,95.1,80.0,29.77,North,351,5.0,0.0,62,0.00,,,0.00,WeatherTracker,2010-07-14 20:39:00,
2010-07-14 15:44:00,95.3,80.2,29.77,WSW,248,4.0,0.0,62,0.00,,,0.00,WeatherTracker,2010-07-14 20:44:00,
2010-07-14 15:49:00,95.1,80.5,29.77,NW,309,1.0,0.0,63,0.00,,,0.00,WeatherTracker,2010-07-14 20:49:00,
2010-07-14 15:54:00,95.1,80.0,29.77,North,350,8.0,0.0,62,0.00,,,0.00,WeatherTracker,2010-07-14 20:54:00,
2010-07-14 15:59:00,95.0,79.9,29.77,NNE,14,12.0,0.0,62,0.00,,,0.00,WeatherTracker,2010-07-14 20:59:00,
2010-07-14 16:04:00,94.5,80.4,29.77,NNW,327,2.0,0.0,64,0.00,,,0.00,WeatherTracker,2010-07-14 21:04:00,
2010-07-14 16:09:00,94.5,80.4,29.77,North,349,7.0,0.0,64,0.00,,,0.00,WeatherTracker,2010-07-14 21:09:00,
2010-07-14 16:14:00,94.6,80.0,29.76,WNW,300,3.0,0.0,63,0.00,,,0.00,WeatherTracker,2010-07-14 21:14:00,
2010-07-14 16:19:00,94.9,80.8,29.76,NNW,332,2.0,0.0,64,0.00,,,0.00,WeatherTracker,2010-07-14 21:19:00,
2010-07-14 16:24:00,95.1,80.5,29.76,NNW,327,2.0,0.0,63,0.00,,,0.00,WeatherTracker,2010-07-14 21:24:00,
2010-07-14 16:29:00,95.2,80.6,29.76,NW,316,5.0,0.0,63,0.00,,,0.00,WeatherTracker,2010-07-14 21:29:00,
2010-07-14 16:34:00,94.7,80.1,29.76,North,360,5.0,0.0,63,0.00,,,0.00,WeatherTracker,2010-07-14 21:34:00,
2010-07-14 16:39:00,94.6,80.5,29.75,NW,324,6.0,0.0,64,0.00,,,0.00,WeatherTracker,2010-07-14 21:39:00,
2010-07-14 16:44:00,94.7,80.6,29.76,West,277,3.0,0.0,64,0.00,,,0.00,WeatherTracker,2010-07-14 21:44:00,
2010-07-14 16:49:00,94.8,80.7,29.75,NNW,327,9.0,0.0,64,0.00,,,0.00,WeatherTracker,2010-07-14 21:49:00,
2010-07-14 16:54:00,94.9,81.2,29.75,WNW,293,5.0,0.0,65,0.00,,,0.00,WeatherTracker,2010-07-14 21:54:00,
2010-07-14 16:59:00,94.6,80.5,29.75,WNW,284,6.0,0.0,64,0.00,,,0.00,WeatherTracker,2010-07-14 21:59:00,
2010-07-14 17:04:00,94.4,80.3,29.75,North,9,4.0,0.0,64,0.00,,,0.00,WeatherTracker,2010-07-14 22:04:00,
2010-07-14 17:09:00,94.6,80.5,29.75,NW,308,7.0,0.0,64,0.00,,,0.00,WeatherTracker,2010-07-14 22:09:00,
2010-07-14 17:14:00,94.5,79.9,29.75,NNW,347,1.0,0.0,63,0.00,,,0.00,WeatherTracker,2010-07-14 22:14:00,
2010-07-14 17:20:00,94.6,80.5,29.75,NNW,346,4.0,0.0,64,0.00,,,0.00,WeatherTracker,2010-07-14 22:20:00,
2010-07-14 17:25:00,94.6,80.5,29.74,NNW,333,0.0,0.0,64,0.00,,,0.00,WeatherTracker,2010-07-14 22:25:00,
2010-07-14 17:30:00,94.7,80.1,29.74,NW,325,6.0,0.0,63,0.00,,,0.00,WeatherTracker,2010-07-14 22:30:00,
2010-07-14 17:35:00,94.4,79.8,29.74,NNW,345,5.0,0.0,63,0.00,,,0.00,WeatherTracker,2010-07-14 22:35:00,
2010-07-14 17:40:00,94.2,79.1,29.74,NNW,336,4.0,0.0,62,0.00,,,0.00,WeatherTracker,2010-07-14 22:40:00,
2010-07-14 17:45:00,94.1,80.0,29.73,NW,326,9.0,0.0,64,0.00,,,0.00,WeatherTracker,2010-07-14 22:45:00,
2010-07-14 17:50:00,94.1,80.5,29.73,NNW,328,4.0,0.0,65,0.00,,,0.00,WeatherTracker,2010-07-14 22:50:00,
2010-07-14 17:55:00,94.4,80.3,29.72,West,265,3.0,0.0,64,0.00,,,0.00,WeatherTracker,2010-07-14 22:55:00,
2010-07-14 18:00:00,94.5,80.4,29.72,WNW,290,6.0,0.0,64,0.00,,,0.00,WeatherTracker,2010-07-14 23:00:00,
2010-07-14 18:05:00,94.4,79.8,29.72,North,5,1.0,0.0,63,0.00,,,0.00,WeatherTracker,2010-07-14 23:05:00,
2010-07-14 18:10:00,94.4,80.3,29.72,NW,317,2.0,0.0,64,0.00,,,0.00,WeatherTracker,2010-07-14 23:10:00,
2010-07-14 18:15:00,94.4,79.8,29.73,NNE,16,5.0,0.0,63,0.00,,,0.00,WeatherTracker,2010-07-14 23:15:00,
2010-07-14 18:20:00,94.0,79.9,29.72,NNW,348,1.0,0.0,64,0.00,,,0.00,WeatherTracker,2010-07-14 23:20:00,
2010-07-14 18:25:00,94.0,79.4,29.72,NW,326,2.0,0.0,63,0.00,,,0.00,WeatherTracker,2010-07-14 23:25:00,
2010-07-14 18:30:00,93.8,79.3,29.72,NNW,329,2.0,0.0,63,0.00,,,0.00,WeatherTracker,2010-07-14 23:30:00,
2010-07-14 18:35:00,93.6,79.1,29.72,NNW,332,4.0,0.0,63,0.00,,,0.00,WeatherTracker,2010-07-14 23:35:00,
2010-07-14 18:40:00,93.5,79.5,29.72,NW,317,3.0,0.0,64,0.00,,,0.00,WeatherTracker,2010-07-14 23:40:00,
2010-07-14 18:45:00,93.3,79.7,29.71,NW,315,5.0,0.0,65,0.00,,,0.00,WeatherTracker,2010-07-14 23:45:00,
2010-07-14 18:50:00,93.3,80.2,29.71,NW,306,2.0,0.0,66,0.00,,,0.00,WeatherTracker,2010-07-14 23:50:00,
2010-07-14 18:55:00,93.3,80.2,29.70,NNW,331,3.0,0.0,66,0.00,,,0.00,WeatherTracker,2010-07-14 23:55:00,
2010-07-14 19:00:00,93.1,80.0,29.69,NW,318,1.0,0.0,66,0.00,,,0.00,WeatherTracker,2010-07-15 00:00:00,
2010-07-14 19:05:00,92.9,80.3,29.69,NW,319,2.0,0.0,67,0.00,,,0.00,WeatherTracker,2010-07-15 00:05:00,
2010-07-14 19:10:00,92.5,79.9,29.68,NNE,15,3.0,0.0,67,0.00,,,0.00,WeatherTracker,2010-07-15 00:10:00,
2010-07-14 19:15:00,91.9,79.8,29.68,North,360,0.0,0.0,68,0.00,,,0.00,WeatherTracker,2010-07-15 00:15:00,
2010-07-14 19:20:00,91.5,79.9,29.68,WNW,283,3.0,0.0,69,0.00,,,0.00,WeatherTracker,2010-07-15 00:20:00,
2010-07-14 19:25:00,91.2,79.6,29.70,NW,322,2.0,0.0,69,0.00,,,0.00,WeatherTracker,2010-07-15 00:25:00,
2010-07-14 19:30:00,90.9,79.7,29.71,NNE,12,3.0,0.0,70,0.00,,,0.00,WeatherTracker,2010-07-15 00:30:00,
2010-07-14 19:35:00,90.8,79.6,29.72,NNE,16,1.0,0.0,70,0.00,,,0.00,WeatherTracker,2010-07-15 00:35:00,
2010-07-14 19:40:00,90.7,80.0,29.72,NNW,334,2.0,0.0,71,0.00,,,0.00,WeatherTracker,2010-07-15 00:40:00,
2010-07-14 19:45:00,90.5,79.8,29.71,North,355,0.0,0.0,71,0.00,,,0.00,WeatherTracker,2010-07-15 00:45:00,
2010-07-14 19:50:00,90.3,79.6,29.72,West,278,0.0,0.0,71,0.00,,,0.00,WeatherTracker,2010-07-15 00:50:00,
2010-07-14 19:55:00,90.2,79.9,29.72,NNW,338,5.0,0.0,72,0.00,,,0.00,WeatherTracker,2010-07-15 00:55:00,
2010-07-14 20:01:00,90.1,79.8,29.73,NW,325,4.0,0.0,72,0.00,,,0.00,WeatherTracker,2010-07-15 01:01:00,
2010-07-14 20:06:00,89.9,79.6,29.73,NW,307,4.0,0.0,72,0.00,,,0.00,WeatherTracker,2010-07-15 01:06:00,
2010-07-14 20:11:00,89.7,79.4,29.74,NNW,329,3.0,0.0,72,0.00,,,0.00,WeatherTracker,2010-07-15 01:11:00,
2010-07-14 20:16:00,89.6,79.3,29.74,NW,321,0.0,0.0,72,0.00,,,0.00,WeatherTracker,2010-07-15 01:16:00,
2010-07-14 20:21:00,89.4,79.6,29.75,North,350,3.0,0.0,73,0.00,,,0.00,WeatherTracker,2010-07-15 01:21:00,
2010-07-14 20:26:00,89.3,79.5,29.75,WNW,302,1.0,0.0,73,0.00,,,0.00,WeatherTracker,2010-07-15 01:26:00,
2010-07-14 20:31:00,89.3,79.5,29.76,North,360,5.0,0.0,73,0.00,,,0.00,WeatherTracker,2010-07-15 01:31:00,
2010-07-14 20:36:00,89.1,79.3,29.76,NW,310,2.0,0.0,73,0.00,,,0.00,WeatherTracker,2010-07-15 01:36:00,
2010-07-14 20:41:00,89.0,79.2,29.76,North,360,0.0,0.0,73,0.00,,,0.00,WeatherTracker,2010-07-15 01:41:00,
2010-07-14 20:46:00,88.9,79.1,29.77,North,360,2.0,0.0,73,0.00,,,0.00,WeatherTracker,2010-07-15 01:46:00,
2010-07-14 20:51:00,88.8,79.0,29.77,NNW,327,3.0,0.0,73,0.00,,,0.00,WeatherTracker,2010-07-15 01:51:00,
2010-07-14 20:56:00,88.7,78.9,29.78,WNW,300,1.0,0.0,73,0.00,,,0.00,WeatherTracker,2010-07-15 01:56:00,
2010-07-14 21:01:00,88.6,78.4,29.77,NNW,327,0.0,0.0,72,0.00,,,0.00,WeatherTracker,2010-07-15 02:01:00,
2010-07-14 21:06:00,88.6,78.4,29.78,NW,319,2.0,0.0,72,0.00,,,0.00,WeatherTracker,2010-07-15 02:06:00,
2010-07-14 21:11:00,88.5,78.7,29.78,North,355,3.0,0.0,73,0.00,,,0.00,WeatherTracker,2010-07-15 02:11:00,
2010-07-14 21:17:00,88.4,78.6,29.79,NNW,328,6.0,0.0,73,0.00,,,0.00,WeatherTracker,2010-07-15 02:17:00,
2010-07-14 21:22:00,88.3,78.5,29.80,NNW,348,0.0,0.0,73,0.00,,,0.00,WeatherTracker,2010-07-15 02:22:00,
2010-07-14 21:27:00,86.9,72.8,29.83,ESE,123,4.0,0.0,63,0.00,,,0.00,WeatherTracker,2010-07-15 02:27:00,
2010-07-14 21:32:00,84.3,70.8,29.85,NNW,342,6.0,0.0,64,0.00,,,0.00,WeatherTracker,2010-07-15 02:32:00,
2010-07-14 21:37:00,82.7,70.2,29.84,SSE,150,3.0,0.0,66,0.00,,,0.00,WeatherTracker,2010-07-15 02:37:00,
2010-07-14 21:42:00,81.8,69.7,29.83,NNW,331,6.0,0.0,67,0.00,,,0.00,WeatherTracker,2010-07-15 02:42:00,
2010-07-14 21:47:00,81.2,70.0,29.81,North,5,0.0,0.0,69,0.00,,,0.00,WeatherTracker,2010-07-15 02:47:00,
2010-07-14 21:52:00,80.8,70.1,29.79,North,5,1.0,0.0,70,0.00,,,0.00,WeatherTracker,2010-07-15 02:52:00,
2010-07-14 21:57:00,80.5,70.2,29.80,North,5,0.0,0.0,71,0.00,,,0.00,WeatherTracker,2010-07-15 02:57:00,
2010-07-14 22:02:00,80.2,70.3,29.82,NW,310,5.0,0.0,72,0.00,,,0.00,WeatherTracker,2010-07-15 03:02:00,
2010-07-14 22:07:00,79.8,70.4,29.82,NNW,341,3.0,0.0,73,0.00,,,0.00,WeatherTracker,2010-07-15 03:07:00,
2010-07-14 22:12:00,79.4,70.4,29.82,North,360,5.0,0.0,74,0.00,,,0.00,WeatherTracker,2010-07-15 03:12:00,
2010-07-14 22:17:00,79.0,70.4,29.85,NW,322,3.0,0.0,75,0.00,,,0.00,WeatherTracker,2010-07-15 03:17:00,
2010-07-14 22:22:00,78.5,70.3,29.83,WNW,290,7.0,0.0,76,0.00,,,0.00,WeatherTracker,2010-07-15 03:22:00,
2010-07-14 22:27:00,77.5,69.7,29.86,NW,306,0.0,0.0,77,0.00,,,0.00,WeatherTracker,2010-07-15 03:27:00,
2010-07-14 22:32:00,76.6,69.6,29.86,NW,315,5.0,0.0,79,0.00,,,0.00,WeatherTracker,2010-07-15 03:32:00,
2010-07-14 22:37:00,75.9,69.6,29.86,ENE,67,3.0,0.0,81,0.00,,,0.00,WeatherTracker,2010-07-15 03:37:00,
2010-07-14 22:43:00,75.4,69.9,29.88,North,5,3.0,0.0,83,0.00,,,0.00,WeatherTracker,2010-07-15 03:43:00,
2010-07-14 22:48:00,75.1,70.3,29.88,NNW,348,0.0,0.0,85,0.01,,,0.01,WeatherTracker,2010-07-15 03:48:00,
2010-07-14 22:53:00,74.7,70.2,29.88,NW,323,1.0,0.0,86,0.01,,,0.01,WeatherTracker,2010-07-15 03:53:00,
2010-07-14 22:58:00,74.3,70.2,29.88,NNE,28,0.0,0.0,87,0.02,,,0.02,WeatherTracker,2010-07-15 03:58:00,
2010-07-14 23:00:00,74.2,70.1,29.87,NNE,28,0.0,0.0,87,0.02,,,0.02,WeatherTracker,2010-07-15 04:00:00,
2010-07-14 23:01:00,74.2,70.4,29.87,NNE,28,0.0,0.0,88,0.02,,,0.02,WeatherTracker,2010-07-15 04:01:00,
2010-07-14 23:06:00,74.0,70.5,29.87,NNE,27,0.0,0.0,89,0.03,,,0.03,WeatherTracker,2010-07-15 04:06:00,
2010-07-14 23:11:00,73.7,70.6,29.87,NNE,27,0.0,0.0,90,0.04,,,0.04,WeatherTracker,2010-07-15 04:11:00,
2010-07-14 23:16:00,73.4,70.3,29.86,NNE,27,0.0,0.0,90,0.05,,,0.05,WeatherTracker,2010-07-15 04:16:00,
2010-07-14 23:21:00,73.0,70.2,29.86,NNE,27,0.0,0.0,91,0.05,,,0.05,WeatherTracker,2010-07-15 04:21:00,
2010-07-14 23:26:00,73.0,70.5,29.86,NNE,27,0.0,0.0,92,0.06,,,0.06,WeatherTracker,2010-07-15 04:26:00,
2010-07-14 23:31:00,73.0,70.9,29.86,NNE,27,2.0,0.0,93,0.06,,,0.06,WeatherTracker,2010-07-15 04:31:00,
2010-07-14 23:36:00,72.9,70.8,29.88,North,355,0.0,0.0,93,0.07,,,0.07,WeatherTracker,2010-07-15 04:36:00,
2010-07-14 23:41:00,72.8,70.7,29.88,North,355,3.0,0.0,93,0.07,,,0.07,WeatherTracker,2010-07-15 04:41:00,
2010-07-14 23:46:00,72.7,70.6,29.86,NNW,333,0.0,0.0,93,0.07,,,0.08,WeatherTracker,2010-07-15 04:46:00,
2010-07-14 23:51:00,72.8,70.7,29.86,ESE,103,3.0,0.0,93,0.08,,,0.09,WeatherTracker,2010-07-15 04:51:00,
2010-07-14 23:56:00,72.6,70.5,29.87,East,94,1.0,0.0,93,0.08,,,0.10,WeatherTracker,2010-07-15 04:56:00,